Weather in Taunton

United Kingdom     51°01′10″N   3°05′32″W
temp.,
°C
wind,
m/s
gust,
m/s
humid.,
%
clouds,
%
prec.,
mm/h
press.,
hPa
HPBL,
m
2 july, sat
sat201:00+10ssw5129416 0.1 1019349
04:00+12ssw61389100 0.0 1017462
07:00+13ssw71288100 0.1 1017663
10:00+15sw61093100 0.7 1017703
13:00+18wsw697098 2.3 10171526
16:00+17w476395 0.3 1017898
19:00+17w466710 0.5 1018973
22:00+11wsw37913 0.1 1019133
3 july, sun
sun301:00+10sw37954 0.1 1019159
04:00+10sw369786 0.0 1018144
07:00+12w399124 0.0 1019415
10:00+17nw676723 0.0 10201162
13:00+18nw776014 0.1 10211332
16:00+18nw775751 0.0 10211420
19:00+16nw5664100 0.0 1021915
22:00+11wnw349198 0.0 102260
4 july, mon
mon401:00+9wsw229348 0.0 102320
04:00+9wsw239488 0.0 102236
07:00+12wsw37915 0.0 1022228
10:00+17wnw457186 0.1 10221087
13:00+17wnw676274 0.1 10231311
16:00+19nw685413 0.0 10231593
19:00+16nw56627 0.0 1023859
22:00+11wnw37840 0.0 1025103
5 july, tue
tue501:00+10nw22891 0.0 102626
04:00+9wnw22900 0.0 102611
07:00+12wnw13840 0.0 1027106
10:00+17nnw34620 0.0 10281012
13:00+19nnw55534 0.0 10281107
16:00+20nnw55534 0.0 10281090
19:00+18nw58660 0.0 1027577
22:00+14wnw38912 0.0 1028139
6 july, wed
wed601:00+13nw33945 0.0 102956
04:00+13nw22955 0.0 102819
07:00+15nw24905 0.0 1028164
10:00+19nnw457046 0.0 1028806
13:00+22n556164 0.0 10281319
16:00+22n446175 0.1 10271295
19:00+21nnw446826 0.3 1028721
22:00+16nnw238946 0.1 102944